Location: Maynard F. Jordan Observatory
(44.9000°N, 68.6700°W)
Time: 14:37:15
(UTC-05:00)

Daily predictions for brighter satellites

Satellite Brightness Start Highest point End
(mag) Time Altitude Azimuth Time Altitude Azimuth Time Altitude Azimuth
CENTAUR R/B 3.9 16:16:00 10° NNW 16:22:17 27° NNE 16:29:04 10° E
Cosmos 2150 Rocket 4.2 16:20:21 10° SSW 16:25:50 87° ESE 16:31:18 10° NNE
ISS -2.5 16:24:36 10° WNW 16:27:46 44° SW 16:30:54 10° SE
Meteor 1-18 Rocket 4.4 16:22:45 10° SSW 16:28:21 82° WNW 16:34:05 10° N
CSL-04 Rocket 3.8 16:23:34 10° SE 16:28:52 55° ENE 16:34:15 10° N
COSMO-SKYMED 1 4.4 16:27:09 10° ENE 16:29:11 13° E 16:31:12 10° ESE
CZ-2C R/B 3.0 16:26:17 10° S 16:31:27 69° WSW 16:36:35 10° NNW
SJ 16-02 2.4 16:28:12 10° SSE 16:31:53 27° E 16:35:34 10° NE
IRAS Rocket 4.2 16:28:42 10° SSE 16:34:06 62° ENE 16:39:31 10° N
Meteor 1-28 Rocket 4.2 16:31:15 10° NE 16:34:31 27° E 16:37:47 10° SSE
Cosmos 2279 Rocket 4.0 16:28:43 10° S 16:34:57 74° E 16:41:13 10° NNE
Cosmos 1975 Rocket 3.3 16:32:05 10° SSW 16:36:33 79° W 16:41:04 10° N
Cosmos 2369 Rocket 4.5 16:34:42 10° WNW 16:37:25 14° NW 16:40:10 10° N
Cosmos 1697 Rocket 3.8 16:35:05 10° SSE 16:39:29 24° ESE 16:43:53 10° NE
MSX 4.4 16:36:45 10° S 16:42:29 65° WSW 16:48:14 10° NNW
Cosmos 1743 2.7 16:42:08 10° N 16:46:01 90° NW 16:49:55 10° S
Gblst 52 Del rocket 4.3 16:44:51 10° WNW 16:50:21 61° NNE 16:56:19 10° ESE
Cosmos 2082 3.6 16:45:47 10° NNW 16:51:24 68° ENE 16:57:00 10° SE
CZ-4 R/B 1.5 16:47:58 10° SE 16:51:43 48° ENE 16:55:34 10° N
Meteor 1-19 Rocket 4.3 16:46:33 10° S 16:52:13 73° E 16:58:01 10° NNE
Ariane Rocket 2.9 16:47:48 10° SSE 16:52:51 75° ENE 16:57:54 10° N
USA 238 DEB 4.0 16:47:11 10° NW 16:54:18 80° SW 17:01:30 10° SSE
USA 238 4.0 16:47:17 10° NW 16:54:25 81° SW 17:01:36 10° SSE
Cosmos 1025 Rocket 4.4 16:52:02 10° SE 16:55:04 19° E 16:57:14 14° NE
SMAP 3.0 16:57:39 10° SSE 17:02:18 89° ENE 17:06:59 10° NNW
Cosmos 2227 Rocket 2.3 16:56:44 10° NNW 17:02:25 81° WSW 17:08:04 10° SSE
ERS-2 3.1 17:00:57 10° ESE 17:04:00 25° ENE 17:07:04 10° N
Cosmos 1269 Rocket 4.0 16:58:53 10° NNW 17:04:10 61° ENE 17:09:24 10° SSE
Cosmos 1536 Rocket 3.5 17:00:30 10° S 17:04:48 64° E 17:09:06 10° NNE
CORIOLIS 4.1 16:59:49 10° SSE 17:05:13 81° ENE 17:10:38 10° NNW
Cosmos 1125 Rocket 3.5 17:00:43 10° S 17:05:57 64° ESE 17:11:11 10° NNE
Cosmos 1048 Rocket 4.0 17:06:52 10° NNW 17:12:18 86° ENE 17:17:40 10° SSE
Okean 2 4.3 17:09:23 10° SSE 17:12:53 28° E 17:14:40 20° NE
Meteor 2-9 Rocket 4.1 17:10:19 10° N 17:15:51 87° W 17:21:13 10° S
Cosmos 1271 Rocket 4.3 17:13:39 10° NNW 17:17:11 37° W 17:20:45 10° SSW
ALOS 2.7 17:13:06 10° SE 17:17:24 38° ENE 17:21:43 10° N
SKYMED 2 4.0 17:14:12 14° NNE 17:17:39 39° E 17:21:44 10° SSE
Cosmos 372 Rocket 3.9 17:12:41 10° SSW 17:17:53 78° ESE 17:23:00 10° NNE
Cosmos 1980 Rocket 3.0 17:15:57 10° SSE 17:20:49 30° ESE 17:23:14 22° ENE
NOSS 3-2 (A) 4.0 17:14:56 10° NW 17:22:29 89° SW 17:30:42 10° SE
NOSS 5 (C) 4.4 17:19:58 10° SW 17:23:41 78° NW 17:25:20 27° NNE
MTI 4.1 17:23:20 30° NE 17:24:30 44° E 17:27:36 10° S
Cosmos 2297 Rocket 2.8 17:23:14 10° NNW 17:28:47 59° WSW 17:34:19 10° S
Meteor 1-23 Rocket 4.2 17:23:18 10° S 17:29:00 70° E 17:34:40 10° NNE
MOS 1 4.2 17:24:17 10° SSE 17:29:54 66° ENE 17:35:32 10° N
NOSS 3-2 (C) 4.0 17:23:16 10° NW 17:30:47 82° NE 17:39:01 10° SE
Cosmos 1656 3.6 17:25:17 10° SSW 17:30:52 89° ESE 17:35:34 15° NNE
Cosmos 2266 Rocket 4.1 17:27:27 10° N 17:33:33 78° W 17:39:43 10° S
ATLAS 3B R/B 3.7 17:28:18 10° NW 17:34:35 45° WSW 17:40:44 10° S
ATLAS 2AS CENTAUR R/B 3.8 17:31:13 10° WSW 17:38:51 50° NW 17:45:53 14° NNE
SL-24 R/B - RUBIN 2 4.4 17:39:22 10° SSW 17:45:23 53° ESE 17:47:41 33° ENE
USA 116 3.9 17:43:51 18° N 17:45:56 50° WNW 17:48:55 10° SSW
USA 215 4.2 17:40:52 10° SSE 17:47:09 49° SW 17:53:27 10° WNW
DELTA 2 R/B (1) 4.4 17:42:21 10° W 17:47:38 45° S 17:51:01 21° SE
NOAA 12 4.0 17:43:51 10° SSE 17:49:05 73° ENE 17:54:21 10° N
Cosmos 2227 4.4 17:43:43 10° NNW 17:49:17 47° ENE 17:51:58 28° ESE
YAOGAN 1 3.3 17:46:33 10° S 17:50:46 53° W 17:55:03 10° NNW
PSLV R/B 4.0 17:49:47 10° WSW 17:52:47 39° S 17:52:53 39° S
Abrixas rocket 3.0 17:51:42 10° WNW 17:54:22 40° NNW 17:54:22 40° NNW
BREEZE-M DEB (TANK) 3.7 17:52:22 10° WNW 17:55:23 79° SSW 17:59:36 22° ESE
S3M 4.2 17:53:00 10° SSE 17:58:38 41° E 17:59:21 39° ENE
NOSS 3-4 (A) 3.4 17:53:37 10° SSW 17:59:50 83° SE 18:02:56 33° NE
NOSS 3-4 (C) 3.4 17:53:42 10° SSW 17:59:56 83° SE 18:03:00 33° NE
SL-16 R/B 4.0 17:59:11 10° SSE 18:00:36 16° SE 18:00:36 16° SE
Cosmos 2263 Rocket 3.5 17:58:58 10° N 18:01:51 23° NNE 18:01:51 23° NNE
FENGYUN 3A 3.6 17:58:56 10° SSE 18:04:19 82° WSW 18:09:43 10° NNW
COSMO-SKYMED 1 2.9 18:02:48 20° N 18:05:46 64° WNW 18:10:03 10° SSW
Cosmos 2322 Rocket 4.0 18:03:30 10° SSE 18:04:45 15° SE 18:04:45 15° SE
DMSP B5D1-3 4.4 18:06:11 34° NNE 18:08:29 77° ESE 18:13:36 10° S
COSMOS 2455 4.3 18:04:20 10° NNW 18:07:26 20° NNE 18:07:26 20° NNE
RESURS DK-1 3.3 18:05:10 10° S 18:07:48 34° SSE 18:07:48 34° SSE
Cosmos 1244 Rocket 4.4 18:03:30 10° N 18:09:41 89° W 18:15:53 10° S
SJ 16-02 3.0 18:06:26 10° SW 18:10:21 31° WNW 18:13:30 14° N
Cosmos 2360 4.1 18:06:50 10° SSW 18:12:31 71° ESE 18:13:53 51° NE
CENTAUR R/B 3.0 18:06:31 10° NW 18:14:22 72° NE 18:19:24 27° SE
EO 1 Del DPAF 4.1 18:22:11 42° NW 18:22:46 46° WNW 18:26:26 10° SW
NOSS 2-2 (E) 4.4 18:19:09 10° SSW 18:21:38 37° S 18:21:38 37° S
Cosmos 1697 Rocket 3.3 18:17:31 10° SW 18:23:03 55° WNW 18:25:54 28° N
SPOT 3 Rocket 4.5 18:24:29 10° S 18:29:28 48° W 18:34:28 10° NNW
SL-08 R/B 4.3 18:23:32 10° N 18:29:51 86° E 18:36:03 10° S
Cosmos 1553 Rocket 3.9 18:25:07 10° S 18:31:31 82° E 18:34:27 35° NNE
Cosmos 1025 Rocket 4.3 18:28:22 10° SW 18:32:24 38° WNW 18:34:10 26° NNW
Cosmos 1417 Rocket 4.4 18:28:42 10° S 18:34:52 83° W 18:38:48 24° N
Cosmos 2251 Rocket 3.8 18:35:43 10° NNW 18:40:58 66° WSW 18:42:21 47° SSW
Cosmos 1745 Rocket 3.8 18:36:44 10° N 18:42:59 88° E 18:49:15 10° S
Gbstr 26 Del rocket 4.3 18:46:08 10° WSW 18:53:58 65° NNW 18:54:39 62° N
ALOS 4.5 18:51:09 10° SSW 18:54:57 24° W 18:58:46 10° NW
Cosmos 1980 Rocket 3.1 18:59:11 10° SW 19:04:36 45° WNW 19:05:03 44° NW
Cosmos 2344 4.2 19:26:32 10° SSW 19:31:20 44° SSW 19:31:20 44° SSW
CENTAUR R/B 4.4 19:57:51 10° NW 20:04:45 33° WSW 20:06:43 29° SW
